Location: Newark
(23.5328°S, 46.7919°W)
Time: 17:31:41
(UTC+00:00)

Envisat - Pass Details

Date: 11 March 2021
Orbit: 764 x 766 km, 98.1° (Epoch: 17 April)

Event Time Altitude Azimuth Distance (km) Brightness Sun altitude
Rises 07:02:23 0° 51° (NE) 3,219 6.6 -28.9°
Reaches altitude 10° 07:05:28 10° 71° (ENE) 2,302 6.1 -28.2°
Maximum altitude 07:08:36 17° 110° (ESE) 1,887 5.8 -27.5°
Drops below altitude 10° 07:11:45 10° 148° (SSE) 2,317 6.1 -26.8°
Sets 07:14:51 0° 168° (SSE) 3,252 6.6 -26.1°
